Weather History for Houlton, ME

Change the Weather History Date:

Sunday, November 3, 2013

  Actual Average Record
Temperature  
Mean Temperature 32 °F 38 °F  
Max Temperature 38 °F 46 °F 65 °F (1951)
Min Temperature 26 °F 29 °F 10 °F (2002)
Degree Days  
Heating Degree Days 33 27  
Month to date heating degree days 62 81  
Since 1 July heating degree days 1073 1217  
Cooling Degree Days 0 0  
Month to date cooling degree days 0 0  
Year to date cooling degree days 198 191  
Moisture  
Dew Point 17 °F    
Average Humidity 57    
Maximum Humidity 69    
Minimum Humidity 44    
Precipitation  
Precipitation 0.00 in 0.15 in 2.32 in (1966)
Month to date precipitation 0.80 0.42  
Year to date precipitation 36.96 33.10  
Sea Level Pressure  
Sea Level Pressure 30.10 in    
Wind  
Wind Speed 9 mph (NNW)    
Max Wind Speed 18 mph    
Max Gust Speed 25 mph    
Visibility 10 miles    
Events      
T = Trace of Precipitation, MM = Missing Value Source: NWS Daily Summary

Daily Weather History Graph

Daily Weather History Graph

Search for Another Location

Airport:

Trip Planner

Search our weather history database for the weather conditions in past years. The results will help you decide how hot, cold, wet, or windy it might be!

Date:

Astronomy

Nov. 03, 2013 Rise Set
Actual Time 6:15 AM EST 4:13 PM EST
Civil Twilight 5:43 AM EST 4:45 PM EST
Nautical Twilight 5:08 AM EST 5:20 PM EST
Astronomical Twilight 4:33 AM EST 5:55 PM EST
Moon 6:15 AM EST (11/3) 4:24 PM EST (11/3)
Length of Visible Light 11h 01m
Length of Day
9h 58m
New Moon, 0% of the Moon is Illuminated
Nov 3
New Moon
Nov 10
First Quarter
Nov 17
Full
Nov 25
Last Quarter
Dec 2
New

Hourly Weather History & Observations

Time (EST) Temp. Windchill Dew Point Humidity Pressure Visibility Wind Dir Wind Speed Gust Speed Precip Events Conditions
12:53 AM 34.0 °F 25.0 °F 21.0 °F 59% 29.84 in 10.0 mi North 12.7 mph 19.6 mph N/A   Mostly Cloudy
1:53 AM 33.1 °F 22.6 °F 19.0 °F 56% 29.85 in 10.0 mi North 16.1 mph 23.0 mph N/A   Mostly Cloudy
1:53 AM 32.0 °F 24.2 °F 19.0 °F 59% 29.89 in 10.0 mi North 9.2 mph - N/A   Mostly Cloudy
2:53 AM 30.9 °F 23.5 °F 19.0 °F 61% 29.91 in 10.0 mi North 8.1 mph - N/A   Mostly Cloudy
3:53 AM 28.9 °F 20.4 °F 18.0 °F 64% 29.94 in 10.0 mi North 9.2 mph - N/A   Clear
4:53 AM 28.0 °F 20.8 °F 19.0 °F 69% 29.97 in 10.0 mi NNW 6.9 mph - N/A   Clear
5:53 AM 27.0 °F 21.6 °F 18.0 °F 69% 30.00 in 10.0 mi North 4.6 mph - N/A   Clear
6:53 AM 27.0 °F 20.5 °F 18.0 °F 69% 30.04 in 10.0 mi NNW 5.8 mph - N/A   Clear
7:53 AM 30.9 °F 23.5 °F 18.0 °F 59% 30.06 in 10.0 mi North 8.1 mph - N/A   Clear
8:53 AM 32.0 °F 22.5 °F 18.0 °F 56% 30.08 in 10.0 mi North 12.7 mph 19.6 mph N/A   Clear
9:53 AM 33.1 °F 24.4 °F 18.0 °F 54% 30.09 in 10.0 mi NNW 11.5 mph - N/A   Scattered Clouds
10:53 AM 35.1 °F 26.9 °F 19.0 °F 52% 30.09 in 10.0 mi North 11.5 mph 19.6 mph N/A   Scattered Clouds
11:53 AM 36.0 °F 27.1 °F 18.0 °F 48% 30.09 in 10.0 mi North 13.8 mph - N/A   Clear
12:53 PM 37.0 °F 29.8 °F 17.1 °F 44% 30.10 in 10.0 mi NW 10.4 mph - N/A   Clear
1:53 PM 37.0 °F 28.5 °F 17.1 °F 44% 30.12 in 10.0 mi North 13.8 mph 25.3 mph N/A   Clear
2:53 PM 37.0 °F 27.4 °F 17.1 °F 44% 30.14 in 10.0 mi North 17.3 mph 23.0 mph N/A   Clear
3:53 PM 34.0 °F 28.0 °F 17.1 °F 50% 30.18 in 10.0 mi NNW 6.9 mph - N/A   Clear
4:53 PM 30.9 °F 27.5 °F 18.0 °F 59% 30.22 in 10.0 mi NW 3.5 mph - N/A   Clear
5:53 PM 30.0 °F 25.2 °F 17.1 °F 59% 30.24 in 10.0 mi NNW 4.6 mph - N/A   Clear
6:53 PM 28.9 °F 25.2 °F 17.1 °F 61% 30.27 in 10.0 mi NNW 3.5 mph - N/A   Clear
7:53 PM 28.0 °F 20.0 °F 15.1 °F 58% 30.30 in 10.0 mi NNW 8.1 mph - N/A   Clear
8:53 PM 27.0 °F 19.5 °F 14.0 °F 58% 30.32 in 10.0 mi North 6.9 mph - N/A   Clear
9:53 PM 27.0 °F 18.0 °F 14.0 °F 58% 30.32 in 10.0 mi NNW 9.2 mph - N/A   Clear
10:53 PM 27.0 °F 17.3 °F 14.0 °F 58% 30.35 in 10.0 mi NNW 10.4 mph - N/A   Clear